| time (UTC) | temp C | wind direction | speed KPH | gust KPH | rain 1hr cm | rain 24hr cm | rain mn cm | humidity % | barometer mb |
| 20260902110317 | 21 | 248 | 0.0 | 0.0 | 0.00 | 0.00 | 0.00 | 99 | 1022.0 |
| 20260902105722 | 21 | 225 | 0.0 | 0.0 | 0.00 | 0.00 | 0.00 | 99 | 1022.0 |
| 20260902105120 | 21 | 203 | 0.0 | 0.0 | 0.00 | 0.00 | 0.00 | 99 | 1022.0 |
| 20260902104535 | 21 | 90 | 0.0 | 0.0 | 0.00 | 0.00 | 0.00 | 99 | 1022.0 |
| 20260902103327 | 21 | 270 | 0.0 | 0.0 | 0.00 | 0.00 | 0.00 | 99 | 1022.0 |
| 20260902101523 | 21 | 225 | 0.0 | 0.0 | 0.00 | 0.00 | 0.00 | 99 | 1022.0 |
| 20260902100905 | 21 | 248 | 0.0 | 0.0 | 0.00 | 0.00 | 0.00 | 99 | 1022.0 |
| 20260902100346 | 21 | 270 | 0.0 | 0.0 | 0.00 | 0.00 | 0.00 | 99 | 1022.0 |
| 20260902095748 | 21 | 270 | 0.0 | 0.0 | 0.00 | 0.00 | 0.00 | 99 | 1022.0 |
| 20260902095132 | 21 | 225 | 0.0 | 0.0 | 0.00 | 0.00 | 0.00 | 99 | 1022.0 |
| 20260902094531 | 21 | 270 | 0.0 | 0.0 | 0.00 | 0.00 | 0.00 | 99 | 1022.0 |
| 20260902093304 | 21 | 203 | 0.0 | 0.0 | 0.00 | 0.00 | 0.00 | 99 | 1021.6 |
| 20260902092739 | 21 | 225 | 0.0 | 0.0 | 0.00 | 0.00 | 0.00 | 99 | 1021.6 |
| 20260902092147 | 21 | 203 | 0.0 | 0.0 | 0.00 | 0.00 | 0.00 | 99 | 1021.6 |
| 20260902091507 | 21 | 225 | 0.0 | 0.0 | 0.00 | 0.00 | 0.00 | 99 | 1021.6 |
| 20260902090925 | 21 | 203 | 0.0 | 0.0 | 0.00 | 0.00 | 0.00 | 99 | 1021.6 |
| 20260902090321 | 21 | 203 | 0.0 | 0.0 | 0.00 | 0.00 | 0.00 | 99 | 1021.6 |
| 20260902085744 | 21 | 180 | 0.0 | 0.0 | 0.00 | 0.00 | 0.00 | 99 | 1021.3 |
| 20260902085148 | 21 | 270 | 0.0 | 0.0 | 0.00 | 0.00 | 0.00 | 99 | 1021.6 |
| 20260902084508 | 21 | 270 | 0.0 | 0.0 | 0.00 | 0.00 | 0.00 | 99 | 1021.3 |
| 20260902083909 | 21 | 225 | 0.0 | 0.0 | 0.00 | 0.00 | 0.00 | 99 | 1021.3 |
| 20260902082108 | 21 | 225 | 0.0 | 0.0 | 0.00 | 0.00 | 0.00 | 99 | 1021.3 |
| 20260902081539 | 21 | 203 | 0.0 | 0.0 | 0.00 | 0.00 | 0.00 | 99 | 1021.3 |
| 20260902080323 | 21 | 203 | 0.0 | 0.0 | 0.00 | 0.00 | 0.00 | 99 | 1021.3 |
| 20260902075708 | 21 | 203 | 0.0 | 0.0 | 0.00 | 0.00 | 0.00 | 99 | 1021.3 |
| 20260902075114 | 21 | 225 | 0.0 | 0.0 | 0.00 | 0.00 | 0.00 | 99 | 1021.3 |
| 20260902074519 | 21 | 270 | 0.0 | 0.0 | 0.00 | 0.00 | 0.00 | 99 | 1021.3 |
| 20260902073915 | 21 | 270 | 0.0 | 0.0 | 0.00 | 0.00 | 0.00 | 99 | 1021.3 |
| 20260902073306 | 21 | 180 | 0.0 | 0.0 | 0.00 | 0.00 | 0.00 | 99 | 1021.3 |
| 20260902072722 | 21 | 293 | 0.0 | 0.0 | 0.00 | 0.00 | 0.00 | 99 | 1021.3 |
| 20260902072145 | 21 | 270 | 0.0 | 0.0 | 0.00 | 0.00 | 0.00 | 99 | 1021.3 |
| 20260902070909 | 21 | 270 | 0.0 | 0.0 | 0.00 | 0.00 | 0.00 | 99 | 1021.3 |
| 20260902065706 | 21 | 225 | 0.0 | 0.0 | 0.00 | 0.00 | 0.00 | 99 | 1021.3 |
| 20260902065138 | 21 | 225 | 0.0 | 0.0 | 0.00 | 0.00 | 0.00 | 99 | 1021.3 |
| 20260902064506 | 21 | 248 | 0.0 | 0.0 | 0.00 | 0.00 | 0.00 | 99 | 1021.3 |
| 20260902063946 | 21 | 203 | 0.0 | 0.0 | 0.00 | 0.00 | 0.00 | 99 | 1021.3 |
| 20260902063330 | 21 | 203 | 0.0 | 0.0 | 0.00 | 0.00 | 0.00 | 99 | 1021.3 |
| 20260902060909 | 22 | 248 | 0.0 | 0.0 | 0.00 | 0.00 | 0.00 | 99 | 1021.3 |
| 20260902060343 | 22 | 248 | 0.0 | 0.0 | 0.00 | 0.00 | 0.00 | 99 | 1021.3 |
| 20260902055714 | 22 | 203 | 0.0 | 0.0 | 0.00 | 0.00 | 0.00 | 99 | 1021.3 |
| 20260902055125 | 22 | 203 | 0.0 | 0.0 | 0.00 | 0.00 | 0.00 | 99 | 1021.3 |
| 20260902054536 | 22 | 203 | 0.0 | 0.0 | 0.00 | 0.00 | 0.00 | 99 | 1021.3 |
| 20260902053929 | 22 | 225 | 0.0 | 0.0 | 0.00 | 0.00 | 0.00 | 99 | 1021.3 |
| 20260902053338 | 22 | 225 | 0.0 | 0.0 | 0.00 | 0.00 | 0.00 | 99 | 1021.3 |
| 20260902052123 | 22 | 203 | 0.0 | 0.0 | 0.00 | 0.00 | 0.00 | 99 | 1021.3 |
| 20260902051511 | 22 | 225 | 0.0 | 0.0 | 0.00 | 0.00 | 0.00 | 99 | 1020.9 |
| 20260902050907 | 22 | 225 | 0.0 | 0.0 | 0.00 | 0.00 | 0.00 | 99 | 1020.9 |
| 20260902050320 | 22 | 225 | 0.0 | 0.0 | 0.00 | 0.00 | 0.00 | 99 | 1020.9 |
| 20260902045729 | 22 | 225 | 0.0 | 0.0 | 0.00 | 0.00 | 0.00 | 99 | 1020.9 |
| 20260902045115 | 22 | 270 | 0.0 | 0.0 | 0.00 | 0.00 | 0.00 | 99 | 1020.9 |
| 20260902043942 | 22 | 203 | 0.0 | 0.0 | 0.00 | 0.00 | 0.00 | 99 | 1020.9 |
| 20260902043349 | 22 | 225 | 0.0 | 0.0 | 0.00 | 0.00 | 0.00 | 99 | 1020.9 |
| 20260902042748 | 22 | 225 | 0.0 | 0.0 | 0.00 | 0.00 | 0.00 | 99 | 1020.9 |
| 20260902042144 | 22 | 203 | 0.0 | 0.0 | 0.00 | 0.00 | 0.00 | 99 | 1020.9 |
| 20260902041539 | 22 | 225 | 0.0 | 0.0 | 0.00 | 0.00 | 0.00 | 99 | 1020.9 |
| 20260902040933 | 22 | 225 | 0.0 | 0.0 | 0.00 | 0.00 | 0.00 | 99 | 1020.9 |
| 20260902040333 | 22 | 203 | 0.0 | 0.0 | 0.00 | 0.00 | 0.00 | 99 | 1020.9 |
| 20260902035715 | 22 | 203 | 0.0 | 0.0 | 0.00 | 0.00 | 0.00 | 99 | 1020.9 |
| 20260902035111 | 22 | 180 | 0.0 | 0.0 | 0.00 | 0.00 | 0.00 | 99 | 1020.9 |
| 20260902034505 | 23 | 203 | 0.0 | 0.0 | 0.00 | 0.00 | 0.00 | 99 | 1020.9 |
| 20260902033906 | 23 | 203 | 0.0 | 0.0 | 0.00 | 0.00 | 0.00 | 99 | 1020.9 |
| 20260902033323 | 23 | 225 | 0.0 | 0.0 | 0.00 | 0.00 | 0.00 | 99 | 1020.9 |
| 20260902032117 | 23 | 203 | 0.0 | 0.0 | 0.00 | 0.00 | 0.00 | 99 | 1020.9 |
| 20260902031530 | 23 | 203 | 0.0 | 0.0 | 0.00 | 0.00 | 0.00 | 99 | 1020.9 |
| 20260902030914 | 23 | 225 | 0.0 | 0.0 | 0.00 | 0.00 | 0.00 | 99 | 1020.9 |
| 20260902025726 | 23 | 203 | 0.0 | 0.0 | 0.00 | 0.00 | 0.00 | 99 | 1020.9 |
| 20260902025144 | 23 | 203 | 0.0 | 0.0 | 0.00 | 0.00 | 0.00 | 99 | 1020.9 |
| 20260902024536 | 23 | 225 | 0.0 | 0.0 | 0.00 | 0.00 | 0.00 | 99 | 1020.6 |
| 20260902023948 | 23 | 225 | 0.0 | 0.0 | 0.00 | 0.00 | 0.00 | 99 | 1020.9 |
| 20260902023349 | 23 | 225 | 0.0 | 0.0 | 0.00 | 0.00 | 0.00 | 99 | 1020.9 |
| 20260902022717 | 23 | 203 | 0.0 | 0.0 | 0.00 | 0.00 | 0.00 | 99 | 1020.9 |
| 20260902022119 | 23 | 270 | 0.0 | 0.0 | 0.00 | 0.00 | 0.00 | 99 | 1020.6 |
| 20260902020938 | 23 | 248 | 0.0 | 0.0 | 0.00 | 0.00 | 0.00 | 99 | 1020.9 |
| 20260902020310 | 24 | 203 | 0.0 | 0.0 | 0.00 | 0.00 | 0.00 | 99 | 1020.9 |
| 20260902015123 | 24 | 203 | 0.0 | 0.0 | 0.00 | 0.00 | 0.00 | 99 | 1020.6 |
| 20260902014507 | 24 | 225 | 1.6 | 1.6 | 0.00 | 0.00 | 0.00 | 99 | 1020.6 |
| 20260902013906 | 24 | 203 | 0.0 | 3.2 | 0.00 | 0.00 | 0.00 | 99 | 1020.6 |
| 20260902013337 | 24 | 203 | 0.0 | 0.0 | 0.00 | 0.00 | 0.00 | 99 | 1020.6 |
| 20260902012738 | 25 | 203 | 0.0 | 0.0 | 0.00 | 0.00 | 0.00 | 99 | 1020.3 |
| 20260902012124 | 25 | 225 | 0.0 | 0.0 | 0.00 | 0.00 | 0.00 | 99 | 1020.3 |
| 20260902011532 | 25 | 203 | 0.0 | 0.0 | 0.00 | 0.00 | 0.00 | 99 | 1020.3 |
| 20260902010942 | 25 | 225 | 0.0 | 0.0 | 0.00 | 0.00 | 0.00 | 99 | 1020.3 |
| 20260902010322 | 25 | 180 | 0.0 | 3.2 | 0.00 | 0.00 | 0.00 | 99 | 1020.3 |
| 20260902005741 | 25 | 203 | 0.0 | 1.6 | 0.00 | 0.00 | 0.00 | 99 | 1020.3 |
| 20260902005121 | 25 | 203 | 0.0 | 0.0 | 0.00 | 0.00 | 0.00 | 99 | 1020.3 |
| 20260902004519 | 25 | 225 | 1.6 | 1.6 | 0.00 | 0.00 | 0.00 | 99 | 1019.9 |
| 20260902003908 | 26 | 270 | 3.2 | 3.2 | 0.00 | 0.00 | 0.00 | 99 | 1019.9 |
| 20260902003349 | 26 | 225 | 3.2 | 4.8 | 0.00 | 0.00 | 0.00 | 99 | 1019.9 |
| 20260902002718 | 26 | 225 | 3.2 | 3.2 | 0.00 | 0.00 | 0.00 | 99 | 1019.9 |
| 20260902002122 | 26 | 225 | 1.6 | 3.2 | 0.00 | 0.00 | 0.00 | 99 | 1019.9 |
| 20260902001528 | 26 | 203 | 4.8 | 4.8 | 0.00 | 0.00 | 0.00 | 99 | 1019.9 |
| 20260902000948 | 26 | 225 | 3.2 | 4.8 | 0.00 | 0.00 | 0.00 | 99 | 1019.9 |
| 20260902000315 | 27 | 203 | 3.2 | 4.8 | 0.00 | 0.00 | 0.00 | 98 | 1019.6 |
| 20260901235711 | 27 | 203 | 3.2 | 4.8 | 0.00 | 0.00 | 0.00 | 95 | 1019.6 |
| 20260901235130 | 28 | 203 | 3.2 | 3.2 | 0.00 | 0.00 | 0.00 | 93 | 1019.6 |
| 20260901234505 | 28 | 203 | 1.6 | 3.2 | 0.00 | 0.00 | 0.00 | 91 | 1019.6 |
| 20260901233934 | 29 | 203 | 1.6 | 3.2 | 0.00 | 0.00 | 0.00 | 88 | 1019.6 |
| 20260901233312 | 28 | 203 | 3.2 | 3.2 | 0.00 | 0.00 | 0.00 | 89 | 1019.6 |
| 20260901232707 | 30 | 203 | 3.2 | 3.2 | 0.00 | 0.00 | 0.00 | 84 | 1019.6 |
| 20260901232113 | 30 | 225 | 1.6 | 4.8 | 0.00 | 0.00 | 0.00 | 83 | 1019.6 |
| 20260901230931 | 31 | 203 | 3.2 | 4.8 | 0.00 | 0.00 | 0.00 | 82 | 1019.6 |
| 20260901225719 | 32 | 225 | 1.6 | 4.8 | 0.00 | 0.00 | 0.00 | 77 | 1019.6 |
| 20260901225118 | 32 | 225 | 3.2 | 4.8 | 0.00 | 0.00 | 0.00 | 76 | 1019.9 |
| 20260901224541 | 33 | 203 | 4.8 | 4.8 | 0.00 | 0.00 | 0.00 | 75 | 1019.6 |
| 20260901223905 | 33 | 248 | 4.8 | 6.4 | 0.00 | 0.00 | 0.00 | 73 | 1019.9 |
| 20260901222744 | 35 | 203 | 3.2 | 3.2 | 0.00 | 0.00 | 0.00 | 68 | 1019.6 |
| 20260901222123 | 36 | 203 | 4.8 | 4.8 | 0.00 | 0.00 | 0.00 | 66 | 1019.9 |
| 20260901221519 | 33 | 225 | 3.2 | 3.2 | 0.00 | 0.00 | 0.00 | 72 | 1019.9 |
| 20260901220937 | 34 | 180 | 4.8 | 4.8 | 0.00 | 0.00 | 0.00 | 71 | 1019.9 |
| 20260901220314 | 34 | 180 | 4.8 | 6.4 | 0.00 | 0.00 | 0.00 | 70 | 1019.9 |
| 20260901215708 | 34 | 203 | 3.2 | 6.4 | 0.00 | 0.00 | 0.00 | 71 | 1019.9 |
| 20260901215141 | 35 | 203 | 4.8 | 4.8 | 0.00 | 0.00 | 0.00 | 68 | 1019.9 |
| 20260901213934 | 34 | 180 | 4.8 | 6.4 | 0.00 | 0.00 | 0.00 | 70 | 1020.3 |
| 20260901213334 | 36 | 203 | 4.8 | 4.8 | 0.00 | 0.00 | 0.00 | 65 | 1020.3 |
| 20260901212705 | 36 | 270 | 1.6 | 3.2 | 0.00 | 0.00 | 0.00 | 63 | 1019.9 |
| 20260901211508 | 36 | 203 | 4.8 | 4.8 | 0.00 | 0.00 | 0.00 | 62 | 1020.3 |
| 20260901210914 | 34 | 225 | 3.2 | 4.8 | 0.00 | 0.00 | 0.00 | 67 | 1020.3 |
| 20260901210320 | 37 | 23 | 3.2 | 4.8 | 0.00 | 0.00 | 0.00 | 55 | 1020.3 |
| 20260901205735 | 37 | 270 | 1.6 | 3.2 | 0.00 | 0.00 | 0.00 | 55 | 1020.3 |
| 20260901205142 | 35 | 158 | 3.2 | 8.0 | 0.00 | 0.00 | 0.00 | 60 | 1020.6 |
| 20260901204528 | 35 | 68 | 4.8 | 8.0 | 0.00 | 0.00 | 0.00 | 59 | 1020.6 |
| 20260901203922 | 35 | 23 | 4.8 | 8.0 | 0.00 | 0.00 | 0.00 | 59 | 1020.6 |
| 20260901203314 | 34 | 0 | 4.8 | 9.7 | 0.00 | 0.00 | 0.00 | 59 | 1020.6 |
| 20260901202136 | 36 | 293 | 4.8 | 8.0 | 0.00 | 0.00 | 0.00 | 55 | 1020.6 |
| 20260901201524 | 36 | 0 | 9.7 | 9.7 | 0.00 | 0.00 | 0.00 | 54 | 1020.6 |
| 20260901200908 | 36 | 0 | 6.4 | 8.0 | 0.00 | 0.00 | 0.00 | 53 | 1020.6 |
| 20260901200323 | 36 | 0 | 3.2 | 6.4 | 0.00 | 0.00 | 0.00 | 56 | 1020.6 |
| 20260901195747 | 36 | 338 | 3.2 | 8.0 | 0.00 | 0.00 | 0.00 | 56 | 1020.6 |
| 20260901195146 | 36 | 0 | 3.2 | 9.7 | 0.00 | 0.00 | 0.00 | 57 | 1020.6 |
| 20260901194511 | 36 | 0 | 12.9 | 12.9 | 0.00 | 0.00 | 0.00 | 55 | 1020.6 |
| 20260901193915 | 35 | 45 | 6.4 | 6.4 | 0.00 | 0.00 | 0.00 | 56 | 1020.6 |
| 20260901193312 | 36 | 225 | 0.0 | 6.4 | 0.00 | 0.00 | 0.00 | 56 | 1020.6 |
| 20260901192710 | 36 | 0 | 4.8 | 6.4 | 0.00 | 0.00 | 0.00 | 54 | 1020.6 |
| 20260901191529 | 38 | 203 | 4.8 | 6.4 | 0.00 | 0.00 | 0.00 | 51 | 1020.9 |
| 20260901190909 | 37 | 203 | 1.6 | 6.4 | 0.00 | 0.00 | 0.00 | 54 | 1020.9 |
| 20260901190310 | 37 | 158 | 3.2 | 3.2 | 0.00 | 0.00 | 0.00 | 56 | 1020.9 |
| 20260901185716 | 37 | 315 | 0.0 | 6.4 | 0.00 | 0.00 | 0.00 | 54 | 1020.9 |
| 20260901185125 | 38 | 0 | 1.6 | 3.2 | 0.00 | 0.00 | 0.00 | 54 | 1020.9 |
| 20260901184513 | 36 | 45 | 6.4 | 6.4 | 0.00 | 0.00 | 0.00 | 57 | 1020.9 |
| 20260901183945 | 37 | 0 | 4.8 | 9.7 | 0.00 | 0.00 | 0.00 | 56 | 1021.3 |
| 20260901183325 | 37 | 113 | 1.6 | 4.8 | 0.00 | 0.00 | 0.00 | 56 | 1021.6 |
| 20260901182718 | 36 | 23 | 3.2 | 4.8 | 0.00 | 0.00 | 0.00 | 57 | 1021.6 |
| 20260901182138 | 36 | 45 | 3.2 | 4.8 | 0.00 | 0.00 | 0.00 | 59 | 1021.6 |
| 20260901180914 | 36 | 90 | 1.6 | 6.4 | 0.00 | 0.00 | 0.00 | 59 | 1021.6 |
| 20260901180342 | 36 | 113 | 6.4 | 12.9 | 0.00 | 0.00 | 0.00 | 59 | 1022.0 |
| 20260901175128 | 35 | 248 | 1.6 | 6.4 | 0.00 | 0.00 | 0.00 | 62 | 1022.0 |
| 20260901174519 | 36 | 315 | 6.4 | 9.7 | 0.00 | 0.00 | 0.00 | 61 | 1022.0 |
| 20260901173942 | 36 | 315 | 4.8 | 11.3 | 0.00 | 0.00 | 0.00 | 60 | 1022.0 |
| 20260901173345 | 35 | 45 | 6.4 | 6.4 | 0.00 | 0.00 | 0.00 | 63 | 1022.0 |
| 20260901172735 | 35 | 23 | 3.2 | 3.2 | 0.00 | 0.00 | 0.00 | 64 | 1022.0 |
| 20260901171514 | 35 | 68 | 6.4 | 9.7 | 0.00 | 0.00 | 0.00 | 63 | 1022.3 |
| 20260901170924 | 35 | 68 | 3.2 | 9.7 | 0.00 | 0.00 | 0.00 | 65 | 1022.3 |
| 20260901170319 | 35 | 270 | 6.4 | 6.4 | 0.00 | 0.00 | 0.00 | 67 | 1022.3 |
| 20260901165707 | 34 | 23 | 6.4 | 6.4 | 0.00 | 0.00 | 0.00 | 68 | 1022.0 |
| 20260901165116 | 34 | 338 | 4.8 | 14.5 | 0.00 | 0.00 | 0.00 | 67 | 1022.3 |
| 20260901164521 | 34 | 0 | 11.3 | 11.3 | 0.00 | 0.00 | 0.00 | 68 | 1022.3 |
| 20260901163939 | 34 | 158 | 1.6 | 6.4 | 0.00 | 0.00 | 0.00 | 68 | 1022.3 |
| 20260901163326 | 35 | 180 | 4.8 | 4.8 | 0.00 | 0.00 | 0.00 | 68 | 1022.3 |
| 20260901162727 | 34 | 225 | 3.2 | 3.2 | 0.00 | 0.00 | 0.00 | 69 | 1022.3 |
| 20260901162125 | 34 | 203 | 3.2 | 3.2 | 0.00 | 0.00 | 0.00 | 69 | 1022.3 |
| 20260901161512 | 34 | 23 | 3.2 | 6.4 | 0.00 | 0.00 | 0.00 | 68 | 1022.3 |
| 20260901160937 | 33 | 180 | 3.2 | 4.8 | 0.00 | 0.00 | 0.00 | 71 | 1022.3 |
| 20260901160344 | 33 | 180 | 3.2 | 6.4 | 0.00 | 0.00 | 0.00 | 72 | 1022.3 |
| 20260901155738 | 33 | 293 | 4.8 | 4.8 | 0.00 | 0.00 | 0.00 | 70 | 1022.3 |
| 20260901155108 | 33 | 158 | 6.4 | 6.4 | 0.00 | 0.00 | 0.00 | 72 | 1022.3 |
| 20260901154540 | 33 | 270 | 8.0 | 8.0 | 0.00 | 0.00 | 0.00 | 72 | 1022.3 |
| 20260901153951 | 33 | 270 | 3.2 | 8.0 | 0.00 | 0.00 | 0.00 | 73 | 1022.3 |
| 20260901152708 | 32 | 203 | 6.4 | 6.4 | 0.00 | 0.00 | 0.00 | 75 | 1022.3 |
| 20260901151536 | 32 | 225 | 4.8 | 4.8 | 0.00 | 0.00 | 0.00 | 77 | 1022.3 |
| 20260901150347 | 32 | 203 | 3.2 | 4.8 | 0.00 | 0.00 | 0.00 | 78 | 1022.6 |
| 20260901145129 | 31 | 203 | 3.2 | 3.2 | 0.00 | 0.00 | 0.00 | 82 | 1022.6 |
| 20260901143932 | 30 | 203 | 3.2 | 4.8 | 0.00 | 0.00 | 0.00 | 83 | 1022.6 |
| 20260901143331 | 30 | 203 | 3.2 | 4.8 | 0.00 | 0.00 | 0.00 | 86 | 1022.6 |
| 20260901142146 | 29 | 180 | 3.2 | 3.2 | 0.00 | 0.00 | 0.00 | 87 | 1022.6 |
| 20260901141522 | 29 | 23 | 3.2 | 3.2 | 0.00 | 0.00 | 0.00 | 87 | 1022.6 |
| 20260901140918 | 28 | 90 | 3.2 | 3.2 | 0.00 | 0.00 | 0.00 | 92 | 1022.6 |
| 20260901140326 | 28 | 158 | 0.0 | 3.2 | 0.00 | 0.00 | 0.00 | 90 | 1022.6 |
| 20260901135741 | 27 | 203 | 0.0 | 0.0 | 0.00 | 0.00 | 0.00 | 91 | 1022.6 |
| 20260901133348 | 26 | 113 | 0.0 | 0.0 | 0.00 | 0.00 | 0.00 | 97 | 1023.0 |
| 20260901132707 | 26 | 135 | 0.0 | 0.0 | 0.00 | 0.00 | 0.00 | 97 | 1023.0 |
| 20260901131519 | 25 | 180 | 0.0 | 0.0 | 0.00 | 0.00 | 0.00 | 99 | 1023.0 |
| 20260901130326 | 24 | 270 | 0.0 | 0.0 | 0.00 | 0.00 | 0.00 | 99 | 1023.0 |
| 20260901125711 | 23 | 248 | 0.0 | 0.0 | 0.00 | 0.00 | 0.00 | 99 | 1023.0 |
| 20260901125114 | 23 | 225 | 0.0 | 0.0 | 0.00 | 0.00 | 0.00 | 99 | 1023.0 |
| 20260901124529 | 23 | 203 | 0.0 | 0.0 | 0.00 | 0.00 | 0.00 | 99 | 1023.0 |
| 20260901123317 | 22 | 203 | 0.0 | 0.0 | 0.00 | 0.00 | 0.00 | 99 | 1023.0 |
| 20260901122721 | 21 | 225 | 0.0 | 0.0 | 0.00 | 0.00 | 0.00 | 99 | 1023.0 |
| 20260901122121 | 21 | 203 | 0.0 | 0.0 | 0.00 | 0.00 | 0.00 | 99 | 1023.0 |
| 20260901121534 | 21 | 225 | 0.0 | 0.0 | 0.00 | 0.00 | 0.00 | 99 | 1023.0 |
| 20260901120934 | 21 | 225 | 0.0 | 0.0 | 0.00 | 0.00 | 0.00 | 99 | 1023.0 |
| 20260901120343 | 21 | 225 | 0.0 | 0.0 | 0.00 | 0.00 | 0.00 | 99 | 1023.0 |
| 20260901115106 | 21 | 225 | 0.0 | 0.0 | 0.00 | 0.00 | 0.00 | 99 | 1022.6 |
| 20260901113931 | 21 | 248 | 0.0 | 0.0 | 0.00 | 0.00 | 0.00 | 99 | 1022.3 |
| 20260901113327 | 21 | 225 | 0.0 | 0.0 | 0.00 | 0.00 | 0.00 | 99 | 1022.3 |
| 20260901112749 | 21 | 248 | 0.0 | 0.0 | 0.00 | 0.00 | 0.00 | 99 | 1022.3 |
| 20260901112143 | 21 | 225 | 0.0 | 0.0 | 0.00 | 0.00 | 0.00 | 99 | 1022.3 |
| 20260901111522 | 21 | 225 | 0.0 | 0.0 | 0.00 | 0.00 | 0.00 | 99 | 1022.3 |
| 20260901110924 | 21 | 203 | 0.0 | 0.0 | 0.00 | 0.00 | 0.00 | 99 | 1022.3 |